KB3MVG-13 Weather Reports


Display with metric or nautical units.
time (UTC)temp
F
wind
direction
speed
MPH
gust
MPH
rain 1hr
in
rain 24hr
in
rain mn
in
humidity
%
barometer
mb
20240525111516 50 270 2.0 5.0 0.00 0.00 0.00 43 1011.2
20240525110515 50 248 2.0 4.0 0.00 0.00 0.00 43 1011.8
20240525105516 51 270 3.0 4.0 0.00 0.00 0.00 40 1012.2
20240525104516 51 270 4.0 7.0 0.00 0.00 0.00 40 1012.3
20240525103515 50 248 3.0 4.0 0.00 0.00 0.00 41 1012.4
20240525102516 50 248 3.0 5.0 0.00 0.00 0.00 42 1012.4
20240525101516 50 270 3.0 7.0 0.00 0.00 0.00 42 1012.5
20240525100516 50 270 6.0 9.0 0.00 0.00 0.00 43 1012.5
20240525095516 51 248 4.0 5.0 0.00 0.00 0.00 41 1012.5
20240525094516 51 225 3.0 5.0 0.00 0.00 0.00 39 1012.7
20240525093516 52 248 5.0 7.0 0.00 0.00 0.00 38 1013.3
20240525092535 53 248 2.0 4.0 0.00 0.00 0.00 36 1013.7
20240525091516 54 293 3.0 6.0 0.00 0.00 0.00 35 1013.7
20240525090516 54 315 5.0 8.0 0.00 0.00 0.00 34 1013.6
20240525085516 55 293 5.0 8.0 0.00 0.00 0.00 32 1014.1
20240525084515 54 293 4.0 9.0 0.00 0.00 0.00 34 1013.8
20240525083535 54 315 4.0 7.0 0.00 0.00 0.00 34 1014.0
20240525082536 54 270 3.0 6.0 0.00 0.00 0.00 34 1014.0
20240525081535 54 293 3.0 8.0 0.00 0.00 0.00 34 1014.1
20240525080517 55 293 4.0 8.0 0.00 0.00 0.00 34 1014.2
20240525075535 55 293 4.0 8.0 0.00 0.00 0.00 33 1014.5
20240525074515 55 293 5.0 7.0 0.00 0.00 0.00 34 1014.5
20240525073536 55 293 4.0 7.0 0.00 0.00 0.00 34 1014.7
20240525072516 55 293 4.0 5.0 0.00 0.00 0.00 34 1014.5
20240525071516 56 293 3.0 5.0 0.00 0.00 0.00 33 1015.0
20240525070515 56 293 4.0 8.0 0.00 0.00 0.00 32 1015.1
20240525065516 56 293 4.0 7.0 0.00 0.00 0.00 33 1015.2
20240525064515 56 315 3.0 5.0 0.00 0.00 0.00 34 1015.1
20240525063516 57 338 3.0 5.0 0.00 0.00 0.00 33 1015.7
20240525062536 58 0 3.0 6.0 0.00 0.00 0.00 32 1015.8
20240525061516 58 0 3.0 5.0 0.00 0.00 0.00 31 1015.5
20240525060516 58 338 2.0 4.0 0.00 0.00 0.00 30 1015.8
20240525055537 59 23 3.0 5.0 0.00 0.00 0.00 28 1016.0
20240525054516 60 23 4.0 8.0 0.00 0.00 0.00 28 1016.0
20240525053516 59 45 3.0 7.0 0.00 0.00 0.00 27 1016.2
20240525052515 60 45 2.0 5.0 0.00 0.00 0.00 28 1016.3
20240525051517 60 23 3.0 4.0 0.00 0.00 0.00 27 1016.8
20240525050537 60 0.0 2.0 0.00 0.00 0.00 28 1016.9
20240525045517 59 315 1.0 3.0 0.00 0.00 0.00 28 1017.2
20240525044516 59 315 2.0 5.0 0.00 0.00 0.00 27 1016.7
20240525043516 59 270 1.0 3.0 0.00 0.00 0.00 28 1016.9
20240525042536 59 270 1.0 3.0 0.00 0.00 0.00 29 1017.1
20240525041537 59 270 2.0 3.0 0.00 0.00 0.00 29 1016.6
20240525040516 59 270 4.0 6.0 0.00 0.00 0.00 29 1016.6
20240525035517 59 113 2.0 3.0 0.00 0.00 0.00 28 1016.1
20240525034516 59 113 1.0 2.0 0.00 0.00 0.00 29 1016.0
20240525033517 60 113 1.0 3.0 0.00 0.00 0.00 28 1016.0
20240525032516 60 328 0.0 0.0 0.00 0.00 0.00 27 1015.9
20240525031517 60 338 3.0 4.0 0.00 0.00 0.00 26 1015.6
20240525030516 60 0.0 2.0 0.00 0.00 0.00 26 1015.7
20240525025517 61 158 5.0 8.0 0.00 0.00 0.00 25 1015.7
20240525024536 62 270 4.0 9.0 0.00 0.00 0.00 23 1015.1
20240525023517 62 315 6.0 11.0 0.00 0.00 0.00 23 1014.8
20240525022516 62 315 8.0 12.0 0.00 0.00 0.00 22 1014.3
20240525021517 63 293 8.0 14.0 0.00 0.00 0.00 21 1014.8
20240525020516 64 293 10.0 16.0 0.00 0.00 0.00 20 1014.9
20240525015516 65 270 11.0 18.0 0.00 0.00 0.00 19 1015.0
20240525014517 66 293 9.0 16.0 0.00 0.00 0.00 18 1015.0
20240525013517 66 270 10.0 18.0 0.00 0.00 0.00 17 1015.0
20240525012536 67 270 11.0 18.0 0.00 0.00 0.00 18 1014.9
20240525011517 66 270 9.0 19.0 0.00 0.00 0.00 20 1014.4
20240525010517 65 225 2.0 8.0 0.00 0.00 0.00 25 1014.6
20240525005516 65 248 1.0 4.0 0.00 0.00 0.00 27 1014.2
20240525004517 64 158 1.0 6.0 0.00 0.00 0.00 27 1014.1
20240525003517 64 158 2.0 5.0 0.00 0.00 0.00 28 1014.1
20240525002516 64 158 3.0 6.0 0.00 0.00 0.00 26 1013.5
20240525001516 64 158 4.0 8.0 0.00 0.00 0.00 26 1013.4
20240525000537 64 158 3.0 11.0 0.00 0.00 0.00 26 1013.5
20240524235536 64 180 3.0 7.0 0.00 0.00 0.00 28 1013.5
20240524234517 64 158 3.0 10.0 0.00 0.00 0.00 27 1013.6
20240524233517 64 158 7.0 10.0 0.00 0.00 0.00 26 1014.0
20240524232516 64 180 7.0 11.0 0.00 0.00 0.00 26 1014.0
20240524231516 65 158 6.0 11.0 0.00 0.00 0.00 26 1013.9
20240524230517 65 180 4.0 7.0 0.00 0.00 0.00 26 1014.3
20240524225516 65 158 4.0 8.0 0.00 0.00 0.00 26 1014.3
20240524224536 66 158 5.0 11.0 0.00 0.00 0.00 26 1013.9
20240524223516 67 135 4.0 10.0 0.00 0.00 0.00 23 1014.2
20240524222516 66 135 6.0 10.0 0.00 0.00 0.00 20 1013.6
20240524221516 66 135 4.0 7.0 0.00 0.00 0.00 19 1013.7
20240524220516 66 158 3.0 6.0 0.00 0.00 0.00 20 1014.1
20240524215516 66 135 5.0 8.0 0.00 0.00 0.00 20 1014.1
20240524214516 66 135 2.0 9.0 0.00 0.00 0.00 22 1014.2
20240524213516 66 113 6.0 14.0 0.00 0.00 0.00 21 1014.6
20240524212516 67 90 3.0 8.0 0.00 0.00 0.00 22 1015.8
20240524211517 67 90 6.0 11.0 0.00 0.00 0.00 21 1015.8
20240524210516 67 90 6.0 12.0 0.00 0.00 0.00 22 1015.8
20240524205516 67 135 4.0 11.0 0.00 0.00 0.00 21 1016.3
20240524205035 67 113 8.0 12.0 0.00 0.00 0.00 22 1016.4
20240524204015 67 135 5.0 10.0 0.00 0.00 0.00 20 1016.6
20240524203015 67 135 7.0 14.0 0.00 0.00 0.00 20 1016.1
20240524202015 66 135 1.0 7.0 0.00 0.00 0.00 21 1015.9
20240524201015 66 45 3.0 6.0 0.00 0.00 0.00 22 1016.0
20240524200015 66 158 4.0 12.0 0.00 0.00 0.00 21 1016.0
20240524195015 66 90 5.0 12.0 0.00 0.00 0.00 20 1015.7
20240524194015 66 113 6.0 13.0 0.00 0.00 0.00 21 1015.9
20240524193015 64 135 6.0 12.0 0.00 0.00 0.00 22 1015.5
20240524192036 64 135 6.0 11.0 0.00 0.00 0.00 21 1015.6
20240524191015 64 113 6.0 11.0 0.00 0.00 0.00 22 1016.1
20240524190015 65 113 4.0 11.0 0.00 0.00 0.00 22 1016.2
20240524185015 64 113 2.0 10.0 0.00 0.00 0.00 22 1015.8
20240524184015 63 68 4.0 10.0 0.00 0.00 0.00 20 1016.3
20240524183015 62 135 3.0 11.0 0.00 0.00 0.00 21 1016.4
20240524182116 62 135 3.0 10.0 0.00 0.00 0.00 21 1016.0
20240524181035 60 113 6.0 10.0 0.00 0.00 0.00 22 1016.2
20240524180055 60 135 2.0 5.0 0.00 0.00 0.00 21 1016.3
20240524175015 60 158 5.0 10.0 0.00 0.00 0.00 22 1016.2
20240524174015 60 293 2.0 4.0 0.00 0.00 0.00 23 1016.6
20240524173015 59 113 4.0 10.0 0.00 0.00 0.00 21 1016.2
20240524172015 60 113 3.0 9.0 0.00 0.00 0.00 23 1017.0
20240524171035 59 90 1.0 7.0 0.00 0.00 0.00 22 1017.0
20240524170015 59 113 3.0 9.0 0.00 0.00 0.00 23 1017.2
20240524165155 58 113 6.0 13.0 0.00 0.00 0.00 25 1017.1
20240524151036 52 113 3.0 5.0 0.00 0.00 0.00 28 1016.3
20240524150017 52 158 2.0 6.0 0.00 0.00 0.00 30 1016.3
20240524145016 51 158 1.0 4.0 0.00 0.00 0.00 30 1016.4
20240524144036 50 158 3.0 5.0 0.00 0.00 0.00 30 1015.9
20240524143016 49 135 4.0 7.0 0.00 0.00 0.00 31 1015.9
20240524142036 50 158 3.0 6.0 0.00 0.00 0.00 29 1015.8
20240524141016 49 158 2.0 9.0 0.00 0.00 0.00 32 1016.3
20240524140036 48 135 4.0 7.0 0.00 0.00 0.00 33 1015.7
20240524135016 47 158 3.0 5.0 0.00 0.00 0.00 36 1015.8
20240524134036 46 158 5.0 9.0 0.00 0.00 0.00 36 1015.8
20240524133016 46 158 3.0 6.0 0.00 0.00 0.00 36 1015.7
20240524132036 46 158 3.0 7.0 0.00 0.00 0.00 35 1015.6
20240524131016 45 158 2.0 5.0 0.00 0.00 0.00 35 1015.9
20240524130036 45 158 1.0 4.0 0.00 0.00 0.00 37 1015.5
20240524125016 44 158 1.0 3.0 0.00 0.00 0.00 37 1015.8
20240524124036 44 0.0 3.0 0.00 0.00 0.00 38 1015.8
20240524123016 43 167 0.0 0.0 0.00 0.00 0.00 38 1015.7
20240524122036 43 167 0.0 0.0 0.00 0.00 0.00 39 1015.5
20240524121016 42 167 0.0 0.0 0.00 0.00 0.00 41 1015.9
20240524120016 42 0.0 1.0 0.00 0.00 0.00 41 1016.1
20240524115016 42 0.0 3.0 0.00 0.00 0.00 40 1016.0
20240524114016 43 0.0 4.0 0.00 0.00 0.00 38 1016.3
20240524113016 44 158 1.0 4.0 0.00 0.00 0.00 35 1016.9